DIRECTV 15

Last updated on Tue Jul 01 2025 00:02:46 GMT+0000 (Coordinated Universal Time)

1 40663U 15026A 25181.38757297 -.00000103 00000+0 00000+0 0 9991 2 40663 0.0158 50.6427 0000184 119.9813 144.7280 1.00271452 36933
UTC large
Height (km)
Speed (km/s)
/
Latitude / Longitude
Inclination (degrees)
Orbital Period (minutes)
Azimuth
Elevation
Range (km)
Doppler Factor

Next 0 passes for location: London (51.5072 / 0.1276)

Sorry there are no passes over London.